Sturgis, MI

4:16 PM EST on December 08, 2019 (GMT -0500)
Kirsch Municipal

Weather History for KIRS - October, 2019

Change the Weather History Date:

Friday, October 4, 2019

  Actual Average (WUND) Record (WUND)
Temperature  
Mean Temperature 52 °F -  
Max Temperature 57 °F - - (-1)
Min Temperature 46 °F - - (-1)
Degree Days  
Heating Degree Days 14    
Growing Degree Days 2 (Base 50)    
Moisture  
Dew Point 43 °F    
Average Humidity 71    
Maximum Humidity 88    
Minimum Humidity 53    
Precipitation  
Precipitation 0.00 in - - ()
Sea Level Pressure  
Sea Level Pressure 30.32 in    
Wind  
Wind Speed 5 mph ()    
Max Wind Speed 14 mph    
Max Gust Speed 18 mph    
Visibility 9.9 miles    
Events      
Averages and records for this station are not official NWS values.
T = Trace of Precipitation, MM = Missing Value Source: Averaged Metar Reports

Daily Weather History Graph

Daily Weather History Graph

Search for Another Location

Airport or City:

Astronomy

Oct. 04, 2019 Rise Set
Actual Time 7:41 AM EDT 7:18 PM EDT
Civil Twilight 7:13 AM EDT 7:46 PM EDT
Nautical Twilight 6:41 AM EDT 8:18 PM EDT
Astronomical Twilight 6:09 AM EDT 8:51 PM EDT
Moon 2:17 PM EDT (10/4) 11:42 PM EDT (10/4)
Length of Visible Light 12h 32m
Length of Day
11h 37m
Waxing Crescent, 39% of the Moon is Illuminated
Oct 4
Waxing Crescent
Oct 5
First Quarter
Oct 13
Full
Oct 21
Last Quarter
Oct 27
New

Hourly Weather History & Observations

Time (EDT) Temp. Dew Point Humidity Pressure Visibility Wind Dir Wind Speed Gust Speed Precip Events Conditions
12:18 AM 56.3 °F 46.2 °F 69% 30.19 in 10.0 mi NNW 5.8 mph - N/A   Overcast
12:36 AM 55.6 °F 46.4 °F 71% 30.19 in 10.0 mi NW 4.6 mph - N/A   Overcast
12:55 AM 55.8 °F 46.0 °F 70% 30.20 in 10.0 mi NW 4.6 mph - N/A   Overcast
1:15 AM 55.4 °F 45.5 °F 69% 30.20 in 10.0 mi NW 4.6 mph - N/A   Overcast
1:39 AM 54.5 °F 45.7 °F 72% 30.20 in 10.0 mi NW 4.6 mph - N/A   Overcast
1:57 AM 54.5 °F 45.5 °F 72% 30.20 in 10.0 mi NW 4.6 mph - N/A   Overcast
2:15 AM 55.0 °F 45.7 °F 71% 30.21 in 10.0 mi NW 4.6 mph - N/A   Overcast
2:35 AM 54.9 °F 45.9 °F 72% 30.22 in 10.0 mi NW 3.5 mph - N/A   Overcast
2:36 AM 54.7 °F 45.9 °F 72% 30.22 in 10.0 mi NW 3.5 mph - N/A   Overcast
2:55 AM 54.1 °F 45.9 °F 74% 30.22 in 10.0 mi NNW 3.5 mph - N/A   Overcast
3:00 AM 53.6 °F 45.9 °F 75% 30.22 in 10.0 mi NNW 3.5 mph - N/A   Overcast
3:18 AM 52.9 °F 45.7 °F 77% 30.23 in 10.0 mi NNW 3.5 mph - N/A   Mostly Cloudy
3:36 AM 51.8 °F 45.7 °F 80% 30.22 in 10.0 mi Calm Calm - N/A   Scattered Clouds
3:55 AM 50.4 °F 45.9 °F 85% 30.23 in 10.0 mi NNW 3.5 mph - N/A   Clear
3:56 AM 50.4 °F 45.9 °F 85% 30.23 in 10.0 mi NNW 3.5 mph - N/A   Clear
4:15 AM 50.7 °F 45.5 °F 82% 30.24 in 10.0 mi NNW 3.5 mph - N/A   Clear
4:16 AM 50.5 °F 45.5 °F 83% 30.24 in 10.0 mi NNW 3.5 mph - N/A   Clear
4:39 AM 49.5 °F 45.1 °F 85% 30.24 in 10.0 mi NNW 3.5 mph - N/A   Clear
4:57 AM 50.0 °F 45.5 °F 85% 30.25 in 10.0 mi NNW 3.5 mph - N/A   Clear
5:15 AM 50.2 °F 45.3 °F 83% 30.26 in 10.0 mi Calm Calm - N/A   Clear
5:16 AM 50.2 °F 45.3 °F 83% 30.26 in 10.0 mi Calm Calm - N/A   Clear
5:35 AM 49.3 °F 44.8 °F 84% 30.27 in 10.0 mi North 5.8 mph - N/A   Clear
5:36 AM 49.3 °F 45.0 °F 85% 30.27 in 10.0 mi North 5.8 mph - N/A   Clear
5:55 AM 50.4 °F 45.5 °F 83% 30.28 in 10.0 mi North 5.8 mph - N/A   Clear
6:00 AM 50.4 °F 45.5 °F 83% 30.28 in 10.0 mi NNE 6.9 mph - N/A   Clear
6:18 AM 50.0 °F 45.5 °F 85% 30.28 in 10.0 mi NNE 4.6 mph - N/A   Clear
6:36 AM 50.0 °F 45.1 °F 83% 30.29 in 10.0 mi NNE 6.9 mph - N/A   Clear
6:55 AM 49.6 °F 45.0 °F 84% 30.30 in 10.0 mi NNE 6.9 mph - N/A   Clear
6:56 AM 49.6 °F 45.0 °F 84% 30.30 in 10.0 mi NNE 6.9 mph - N/A   Clear
7:15 AM 49.3 °F 44.8 °F 84% 30.30 in 10.0 mi NNE 6.9 mph - N/A   Clear
7:16 AM 49.3 °F 44.8 °F 84% 30.30 in 10.0 mi NNE 5.8 mph - N/A   Clear
7:39 AM 48.9 °F 44.6 °F 85% 30.31 in 10.0 mi NNE 5.8 mph - N/A   Clear
7:57 AM 48.6 °F 44.4 °F 86% 30.32 in 10.0 mi NNE 4.6 mph - N/A   Clear
8:15 AM 49.1 °F 44.6 °F 84% 30.32 in 10.0 mi NNE 5.8 mph - N/A   Clear
8:16 AM 49.3 °F 44.6 °F 84% 30.32 in 10.0 mi NNE 5.8 mph - N/A   Clear
8:35 AM 50.2 °F 44.1 °F 79% 30.33 in 10.0 mi NNE 6.9 mph - N/A   Clear
8:36 AM 50.2 °F 44.1 °F 79% 30.33 in 10.0 mi North 6.9 mph - N/A   Clear
8:55 AM 50.9 °F 43.7 °F 76% 30.34 in 10.0 mi NNE 10.4 mph - N/A   Clear
9:18 AM 51.8 °F 43.2 °F 72% 30.35 in 10.0 mi NNE 10.4 mph - N/A   Clear
9:36 AM 52.7 °F 42.4 °F 68% 30.36 in 10.0 mi NNE 10.4 mph 17.3 mph N/A   Clear
9:55 AM 53.6 °F 41.0 °F 62% 30.36 in 10.0 mi NE 13.8 mph 18.4 mph N/A   Clear
9:56 AM 53.6 °F 41.0 °F 62% 30.36 in 10.0 mi NE 11.5 mph 18.4 mph N/A   Clear
10:15 AM 54.1 °F 40.6 °F 60% 30.37 in 10.0 mi NNE 10.4 mph 16.1 mph N/A   Clear
10:39 AM 54.7 °F 40.3 °F 58% 30.37 in 10.0 mi NE 12.7 mph 18.4 mph N/A   Clear
10:57 AM 54.9 °F 40.3 °F 58% 30.37 in 10.0 mi NE 13.8 mph - N/A   Scattered Clouds
11:16 AM 55.9 °F 40.6 °F 56% 30.37 in 10.0 mi NNE 11.5 mph 18.4 mph N/A   Scattered Clouds
11:35 AM 57.7 °F 41.5 °F 55% 30.38 in 10.0 mi NNE 9.2 mph - N/A   Mostly Cloudy
11:55 AM 56.1 °F 40.1 °F 55% 30.38 in 10.0 mi NNE 6.9 mph - N/A   Overcast
12:18 PM 55.6 °F 39.9 °F 56% 30.38 in 10.0 mi NE 8.1 mph - N/A   Overcast
12:36 PM 55.4 °F 39.4 °F 55% 30.38 in 10.0 mi NNE 9.2 mph - N/A   Overcast
12:55 PM 55.4 °F 39.6 °F 55% 30.39 in 10.0 mi NNE 9.2 mph - N/A   Overcast
1:15 PM 55.9 °F 39.7 °F 55% 30.38 in 10.0 mi North 4.6 mph - N/A   Overcast
1:16 PM 55.8 °F 39.7 °F 55% 30.38 in 10.0 mi Calm Calm - N/A   Overcast
1:39 PM 55.8 °F 39.9 °F 55% 30.38 in 10.0 mi NE 6.9 mph - N/A   Overcast
1:57 PM 56.3 °F 40.1 °F 55% 30.37 in 10.0 mi NNE 6.9 mph - N/A   Overcast
2:15 PM 55.8 °F 40.6 °F 57% 30.37 in 10.0 mi NE 6.9 mph - N/A   Overcast
2:35 PM 56.3 °F 39.6 °F 53% 30.36 in 10.0 mi NNE 6.9 mph - N/A   Overcast
2:55 PM 55.9 °F 40.3 °F 56% 30.36 in 10.0 mi North 6.9 mph - N/A   Overcast
3:00 PM 55.9 °F 40.3 °F 56% 30.36 in 10.0 mi NNE 5.8 mph - N/A   Overcast
3:18 PM 55.9 °F 39.6 °F 54% 30.36 in 10.0 mi NNE 6.9 mph - N/A   Overcast
3:36 PM 55.9 °F 38.8 °F 53% 30.36 in 10.0 mi NNE 4.6 mph - N/A   Overcast
3:55 PM 55.8 °F 39.0 °F 53% 30.36 in 10.0 mi NNE 5.8 mph - N/A   Overcast
4:15 PM 56.5 °F 39.6 °F 53% 30.35 in 10.0 mi NE 5.8 mph - N/A   Overcast
4:16 PM 56.5 °F 39.6 °F 53% 30.35 in 10.0 mi NE 5.8 mph - N/A   Overcast
4:38 PM 56.3 °F 39.6 °F 53% 30.35 in 10.0 mi North 6.9 mph - N/A   Overcast
4:57 PM 56.1 °F 40.3 °F 55% 30.36 in 10.0 mi NNE 4.6 mph - N/A   Overcast
5:15 PM 55.8 °F 40.1 °F 56% 30.35 in 10.0 mi NNE 8.1 mph - N/A   Overcast
5:35 PM 55.9 °F 40.1 °F 55% 30.35 in 10.0 mi NE 8.1 mph - N/A   Overcast
5:36 PM 55.9 °F 39.9 °F 55% 30.35 in 10.0 mi NNE 8.1 mph - N/A   Overcast
5:55 PM 55.4 °F 39.9 °F 56% 30.35 in 10.0 mi NNE 5.8 mph - N/A   Overcast
6:00 PM 55.4 °F 39.7 °F 56% 30.34 in 10.0 mi NNE 5.8 mph - N/A   Overcast
6:18 PM 55.0 °F 40.8 °F 59% 30.34 in 10.0 mi NNE 4.6 mph - N/A   Scattered Clouds
6:36 PM 55.4 °F 40.1 °F 56% 30.35 in 10.0 mi NE 4.6 mph - N/A   Mostly Cloudy
6:55 PM 54.1 °F 39.9 °F 59% 30.34 in 4.0 mi NE 6.9 mph - N/A   Haze
7:15 PM 53.8 °F 41.7 °F 64% 30.34 in 10.0 mi NNE 4.6 mph - N/A   Overcast
7:39 PM 52.9 °F 42.8 °F 69% 30.34 in 10.0 mi NE 5.8 mph - N/A   Overcast
7:57 PM 52.7 °F 43.3 °F 70% 30.34 in 10.0 mi NE 6.9 mph - N/A   Overcast
8:15 PM 52.7 °F 43.7 °F 71% 30.34 in 10.0 mi NE 5.8 mph - N/A   Mostly Cloudy
8:16 PM 52.5 °F 43.7 °F 72% 30.34 in 10.0 mi NE 6.9 mph - N/A   Mostly Cloudy
8:35 PM 52.2 °F 43.3 °F 72% 30.34 in 10.0 mi NE 6.9 mph - N/A   Mostly Cloudy
8:55 PM 51.8 °F 43.7 °F 74% 30.34 in 10.0 mi NE 6.9 mph - N/A   Scattered Clouds
9:00 PM 51.3 °F 43.9 °F 76% 30.34 in 10.0 mi NE 6.9 mph - N/A   Scattered Clouds
9:18 PM 51.1 °F 43.0 °F 74% 30.35 in 10.0 mi NE 6.9 mph - N/A   Clear
9:36 PM 50.0 °F 43.7 °F 79% 30.35 in 10.0 mi NE 5.8 mph - N/A   Clear
9:55 PM 49.6 °F 43.9 °F 81% 30.35 in 10.0 mi ENE 5.8 mph - N/A   Clear
10:15 PM 48.9 °F 43.9 °F 83% 30.36 in 10.0 mi ENE 4.6 mph - N/A   Clear
10:16 PM 48.9 °F 43.9 °F 83% 30.36 in 10.0 mi ENE 4.6 mph - N/A   Clear
10:39 PM 48.0 °F 43.7 °F 85% 30.35 in 10.0 mi ENE 4.6 mph - N/A   Clear
10:57 PM 47.8 °F 43.7 °F 86% 30.36 in 10.0 mi NE 4.6 mph - N/A   Clear
11:15 PM 47.3 °F 43.7 °F 87% 30.35 in 10.0 mi ENE 4.6 mph - N/A   Clear
11:35 PM 46.9 °F 43.7 °F 88% 30.36 in 10.0 mi ENE 3.5 mph - N/A   Scattered Clouds
11:36 PM 46.9 °F 43.7 °F 88% 30.36 in 10.0 mi ENE 3.5 mph - N/A   Scattered Clouds
11:55 PM 46.6 °F 43.3 °F 88% 30.35 in 10.0 mi East 4.6 mph - N/A   Scattered Clouds